1496037600.61,15868,17.63,74300.8,19.87,-25.03,-25.97,0,*45
1496037601.83,15869,17.63,74304.0,19.91,-24.93,-25.75,0,*47
1496037603.06,15870,17.63,74304.0,19.91,-25.39,-26.29,0,*44
1496037604.32,15871,17.63,74304.3,19.93,-25.03,-26.03,0,*46
1496037605.55,15872,17.63,74302.3,19.95,-24.57,-25.55,0,*43
1496037606.83,15873,17.63,74306.5,19.93,-24.87,-25.97,0,*47
1496037608.03,15874,17.63,74306.8,19.95,-25.09,-26.07,0,*4B
1496037609.3,15875,17.63,74304.0,20.01,-24.47,-25.55,0,*42
1496037610.54,15876,17.63,74300.8,20.01,-24.47,-25.39,0,*4B
1496037611.8,15877,17.63,74306.0,20.01,-24.47,-25.45,0,*41
1496037613.03,15878,17.63,74302.8,20.03,-24.47,-25.45,0,*4C
1496037614.3,15879,17.63,74306.0,20.05,-24.41,-25.49,0,*41
1496037615.54,15880,17.63,74306.0,20.05,-24.35,-25.39,0,*43
1496037616.74,15881,17.63,74306.8,20.07,-24.97,-25.87,0,*4D
1496037617.97,15882,17.63,74306.8,20.07,-25.03,-26.03,0,*4D
1496037619.22,15883,17.63,74304.8,20.09,-24.93,-25.97,0,*44
1496037620.5,15884,17.69,74308.0,20.09,-24.67,-25.75,0,*44
1496037621.78,15885,17.63,74306.5,20.09,-24.41,-25.29,0,*48
1496037623.01,15886,17.63,74304.5,20.09,-24.31,-25.23,0,*46
1496037624.3,15887,17.63,74302.5,20.13,-24.41,-25.55,0,*4A
1496037625.54,15888,17.69,74306.3,20.13,-24.57,-25.49,0,*4F
1496037626.75,15889,17.63,74304.3,20.15,-24.35,-25.35,0,*47
1496037628.02,15890,17.63,74304.8,20.15,-24.21,-25.29,0,*47
1496037629.3,15891,17.63,74304.3,20.17,-24.87,-25.81,0,*4A
1496037630.58,15892,17.63,74306.0,20.17,-24.83,-25.97,0,*4A
1496037631.81,15893,17.63,74306.0,20.21,-24.97,-26.07,0,*41
1496037633.04,15894,17.63,74306.3,20.23,-24.61,-25.55,0,*49
1496037634.27,15895,17.63,74302.0,20.25,-24.35,-25.23,0,*4E
1496037635.53,15896,17.63,74306.8,20.25,-24.57,-25.55,0,*48
1496037636.76,15897,17.63,74306.3,20.25,-24.47,-25.35,0,*4E
1496037637.99,15898,17.63,74302.3,20.27,-24.35,-25.29,0,*4B
1496037639.23,15899,17.63,74300.3,20.29,-24.51,-25.45,0,*4C
1496037640.52,15900,17.63,74306.5,20.31,-24.21,-25.03,0,*41
1496037641.78,15901,17.63,74304.0,20.31,-23.95,-24.93,0,*40
1496037642.99,15902,17.63,74302.8,20.33,-24.05,-25.09,0,*4D
1496037644.25,15903,17.63,74302.3,20.35,-24.05,-25.03,0,*40
1496037645.5,15904,17.63,74304.3,20.35,-23.99,-24.97,0,*49
1496037646.74,15905,17.63,74302.3,20.35,-24.57,-25.49,0,*4F
1496037648.02,15906,17.63,74302.8,20.35,-25.81,-26.71,0,*4E
1496037649.28,15907,17.63,74302.0,20.35,-26.55,-27.67,0,*43
1496037650.51,15908,17.63,74304.0,20.35,-28.31,-29.57,0,*4D
1496037651.72,15909,17.63,74304.8,20.33,-28.53,-29.67,0,*4D
1496037652.98,15910,17.63,74306.5,20.29,-28.59,-29.51,0,*41
1496037654.21,15911,17.63,74302.8,20.29,-27.51,-28.63,0,*47
1496037655.44,15912,17.63,74306.8,20.29,-27.07,-28.09,0,*4B
1496037656.7,15913,17.63,74304.0,20.29,-25.97,-26.97,0,*48
1496037657.99,15914,17.63,74304.0,20.31,-25.75,-26.77,0,*44
1496037659.22,15915,17.63,74304.5,20.29,-25.09,-25.97,0,*4A
1496037660.47,15916,17.63,74304.8,20.31,-25.19,-26.17,0,*4A
1496037661.69,15917,17.63,74304.5,20.29,-25.91,-26.93,0,*4E
1496037662.98,15918,17.63,74302.8,20.31,-25.75,-26.77,0,*48
1496037664.24,15919,17.63,74304.3,20.31,-25.87,-26.93,0,*4E
1496037665.5,15920,17.63,74304.0,20.31,-25.45,-26.39,0,*4A
1496037666.72,15921,17.63,74304.5,20.31,-24.93,-25.91,0,*40
1496037667.92,15922,17.63,74306.8,20.33,-25.61,-26.61,0,*41
1496037669.15,15923,17.63,74302.8,20.33,-26.23,-27.19,0,*4B
1496037670.35,15924,17.63,74304.3,20.33,-25.87,-26.87,0,*47
1496037671.59,15925,17.63,74304.3,20.33,-25.03,-26.03,0,*46
1496037672.85,15926,17.63,74302.0,20.35,-24.67,-25.49,0,*4D
1496037674.09,15927,17.63,74302.8,20.37,-24.35,-25.29,0,*4F
1496037675.35,15928,17.63,74306.8,20.39,-24.47,-25.45,0,*41
1496037676.61,15929,17.63,74306.0,20.37,-24.21,-25.45,0,*4E
1496037677.84,15930,17.63,74304.5,20.43,-24.61,-25.61,0,*47
1496037679.08,15931,17.63,74300.5,20.45,-24.25,-25.19,0,*4F
1496037680.3,15932,17.63,74302.0,20.45,-25.39,-26.55,0,*4B
1496037681.53,15933,17.63,74302.5,20.45,-25.39,-26.33,0,*4A
1496037682.74,15934,17.63,74304.3,20.45,-24.51,-25.39,0,*4B
1496037683.98,15935,17.63,74302.3,20.47,-24.51,-25.49,0,*4F
1496037685.21,15936,17.63,74306.8,20.49,-24.35,-25.29,0,*46
1496037686.43,15937,17.63,74306.8,20.49,-25.19,-26.29,0,*4B
1496037687.66,15938,17.63,74306.5,20.49,-25.13,-26.13,0,*47
1496037688.88,15939,17.63,74306.0,20.51,-25.39,-26.45,0,*44
1496037690.1,15940,17.63,74306.3,20.51,-24.93,-25.87,0,*46
1496037691.35,15941,17.63,74302.5,20.51,-24.77,-25.75,0,*40
1496037692.58,15942,17.63,74306.5,20.51,-24.31,-25.23,0,*42
1496037693.78,15943,17.63,74304.8,20.53,-24.93,-26.07,0,*4C
1496037695.01,15944,17.63,74306.0,20.53,-26.13,-27.29,0,*4C
1496037696.26,15945,17.63,74302.8,20.51,-27.03,-28.21,0,*48
1496037697.45,15946,17.63,74306.8,20.53,-27.71,-28.97,0,*41
1496037698.71,15947,17.63,74306.0,20.51,-27.29,-28.47,0,*42
1496037699.91,15948,17.63,74304.0,20.53,-25.39,-26.39,0,*4B
1496037701.11,15949,17.63,74302.3,20.53,-25.13,-26.23,0,*49
1496037702.38,15950,17.63,74304.3,20.51,-25.55,-26.71,0,*46
1496037703.61,15951,17.63,74302.8,20.53,-25.55,-26.45,0,*42
1496037704.84,15952,17.63,74306.0,20.53,-25.13,-26.13,0,*40
1496037706.09,15953,17.63,74302.8,20.55,-24.87,-25.87,0,*45
1496037707.35,15954,17.63,74306.3,20.55,-25.97,-27.03,0,*4C
1496037708.62,15955,17.63,74306.0,20.55,-26.71,-27.99,0,*45
1496037709.88,15956,17.63,74302.3,20.55,-27.03,-28.05,0,*48
1496037711.08,15957,17.63,74306.0,20.53,-25.87,-27.03,0,*48
1496037712.28,15958,17.63,74306.3,20.53,-26.39,-27.55,0,*42
1496037713.5,15959,17.63,74304.3,20.53,-26.39,-27.45,0,*42
1496037714.73,15960,17.63,74302.0,20.53,-27.03,-28.09,0,*47
1496037715.97,15961,17.63,74300.5,20.51,-26.23,-27.23,0,*40
1496037717.23,15962,17.63,74306.5,20.53,-25.71,-26.77,0,*45
1496037718.45,15963,17.63,74304.8,20.53,-25.23,-26.29,0,*48
1496037719.65,15964,17.63,74306.8,20.53,-25.39,-26.45,0,*4E
1496037720.91,15965,17.63,74306.3,20.53,-24.71,-25.75,0,*42
1496037722.12,15966,17.63,74306.5,20.57,-24.35,-25.35,0,*41
1496037723.4,15967,17.63,74304.5,20.59,-24.25,-25.29,0,*42
1496037724.66,15968,17.63,74306.3,20.61,-24.15,-25.09,0,*47
1496037725.93,15969,17.63,74304.3,20.61,-24.15,-25.29,0,*44
1496037727.16,15970,17.63,74306.0,20.63,-25.03,-26.07,0,*47
1496037728.39,15971,17.63,74306.5,20.63,-24.87,-25.87,0,*40
1496037729.63,15972,17.63,74306.0,20.63,-24.41,-25.39,0,*4C
1496037730.83,15973,17.63,74306.0,20.67,-25.87,-27.13,0,*48
1496037732.06,15974,17.63,74306.0,20.67,-25.87,-26.97,0,*42
1496037733.29,15975,17.63,74304.8,20.67,-24.87,-26.03,0,*4F
1496037734.51,15976,17.63,74306.0,20.67,-24.51,-25.61,0,*40
1496037735.77,15977,17.63,74302.3,20.69,-23.99,-24.97,0,*44
1496037737.0,15978,17.63,74304.0,20.71,-23.95,-24.93,0,*4A
1496037738.25,15979,17.63,74306.0,20.73,-24.21,-25.19,0,*42
1496037739.49,15980,17.63,74302.3,20.75,-24.21,-25.09,0,*43
1496037740.72,15981,17.63,74300.5,20.75,-24.05,-25.03,0,*4E
1496037741.94,15982,17.63,74306.8,20.79,-24.93,-25.81,0,*44
1496037743.14,15983,17.63,74304.3,20.79,-25.09,-26.07,0,*4A
1496037744.39,15984,17.63,74302.8,20.79,-25.45,-26.55,0,*42
1496037745.61,15985,17.63,74302.0,20.79,-25.29,-26.45,0,*48
1496037746.89,15986,17.63,74304.8,20.77,-24.67,-25.71,0,*4A
1496037748.13,15987,17.63,74304.0,20.79,-24.61,-25.75,0,*47
1496037749.32,15988,17.63,74306.8,20.79,-24.93,-25.91,0,*4F
1496037750.57,15989,17.63,74302.0,20.81,-24.57,-25.71,0,*4F
1496037751.81,15990,17.63,74306.0,20.83,-24.77,-25.75,0,*43
1496037753.04,15991,17.63,74300.3,20.81,-24.57,-25.49,0,*4D
1496037754.26,15992,17.63,74306.8,20.83,-24.11,-25.19,0,*4B
1496037755.54,15993,17.63,74302.8,20.85,-23.95,-25.03,0,*4C
1496037756.77,15994,17.63,74304.8,20.91,-24.15,-25.09,0,*4B
1496037757.99,15995,17.63,74306.8,20.91,-24.11,-24.97,0,*48
1496037759.25,15996,17.63,74300.3,20.91,-24.67,-25.75,0,*47
1496037760.45,15997,17.63,74304.8,20.91,-25.13,-26.39,0,*4F
1496037761.65,15998,17.63,74306.0,20.93,-24.77,-25.87,0,*47
1496037762.87,15999,17.63,74304.0,20.93,-25.91,-26.93,0,*49
1496037764.09,16000,17.63,74302.0,20.93,-26.61,-27.61,0,*43
1496037765.33,16001,17.63,74304.5,20.91,-26.81,-27.67,0,*48
1496037766.54,16002,17.63,74306.5,20.91,-25.45,-26.45,0,*41
1496037767.77,16003,17.63,74304.8,20.93,-25.75,-26.61,0,*47
1496037768.96,16004,17.63,74302.5,20.91,-25.39,-26.45,0,*4C
1496037770.16,16005,17.63,74304.0,20.93,-24.93,-26.03,0,*4C
1496037771.41,16006,17.63,74304.5,20.93,-24.41,-25.45,0,*41
1496037772.64,16007,17.63,74304.0,20.95,-24.31,-25.35,0,*46
1496037773.86,16008,17.63,74306.0,20.97,-24.51,-25.49,0,*46
1496037775.08,16009,17.63,74306.0,20.99,-23.79,-24.93,0,*42
1496037776.31,16010,17.63,74304.3,20.99,-24.61,-25.65,0,*4C
1496037777.54,16011,17.63,74300.3,20.99,-24.61,-25.65,0,*4D
1496037778.76,16012,17.63,74306.8,20.99,-25.23,-26.23,0,*48
1496037779.98,16013,17.63,74302.8,21.01,-25.19,-26.17,0,*47
1496037781.23,16014,17.63,74302.5,21.01,-25.71,-26.93,0,*42
1496037782.42,16015,17.63,74302.0,21.01,-26.61,-27.77,0,*4A
1496037783.65,16016,17.63,74306.0,21.01,-26.55,-27.89,0,*4F
1496037784.9,16017,17.63,74306.0,20.99,-27.07,-28.25,0,*41
1496037786.18,16018,17.63,74306.0,20.99,-26.77,-27.99,0,*40
1496037787.43,16019,17.63,74304.5,20.99,-27.23,-28.53,0,*48
1496037788.63,16020,17.63,74302.8,20.97,-27.03,-28.31,0,*4A
1496037789.88,16021,17.63,74302.0,20.99,-26.61,-27.83,0,*46
1496037791.11,16022,17.63,74304.3,20.95,-26.49,-27.71,0,*4E
1496037792.34,16023,17.63,74304.0,20.95,-26.65,-27.89,0,*46
1496037793.58,16024,17.63,74304.0,20.95,-26.03,-27.29,0,*4B
1496037794.81,16025,17.63,74302.0,20.97,-26.33,-27.51,0,*44
1496037796.04,16026,17.63,74302.0,20.97,-26.65,-27.83,0,*4B
1496037797.28,16027,17.63,74300.8,20.95,-26.39,-27.45,0,*4B
1496037798.53,16028,17.63,74306.5,20.95,-26.29,-27.51,0,*40
1496037799.76,16029,17.63,74302.5,20.95,-27.03,-28.31,0,*41
1496037800.99,16030,17.63,74304.5,20.95,-27.03,-28.37,0,*4F
1496037802.2,16031,17.63,74304.0,20.93,-27.19,-28.37,0,*43
1496037803.45,16032,17.63,74306.5,20.91,-27.45,-28.79,0,*41
1496037804.7,16033,17.63,74306.5,20.93,-26.93,-28.25,0,*41
1496037805.93,16034,17.63,74304.5,20.91,-25.65,-26.81,0,*4E
1496037807.12,16035,17.63,74304.0,20.91,-25.09,-26.23,0,*4D
1496037808.32,16036,17.63,74302.0,20.91,-24.77,-25.87,0,*4B
1496037809.57,16037,17.63,74300.8,20.95,-25.49,-26.55,0,*4E
1496037810.82,16038,17.63,74302.0,20.95,-25.71,-26.87,0,*45
1496037812.08,16039,17.63,74304.3,20.95,-25.65,-26.81,0,*47
1496037813.28,16040,17.63,74300.8,20.97,-26.49,-27.55,0,*4E
1496037814.51,16041,17.63,74302.5,20.97,-26.81,-28.15,0,*40
1496037815.71,16042,17.63,74304.3,20.97,-25.65,-26.65,0,*43
1496037816.93,16043,17.63,74300.5,20.97,-24.87,-26.03,0,*4F
1496037818.18,16044,17.63,74306.8,20.97,-25.55,-26.71,0,*43
1496037819.37,16045,17.63,74300.5,20.97,-25.35,-26.49,0,*4F
1496037820.63,16046,17.63,74306.0,20.99,-25.97,-27.07,0,*41
1496037821.87,16047,17.63,74302.5,21.01,-25.03,-26.17,0,*4D
1496037823.13,16048,17.63,74304.5,20.99,-24.77,-25.75,0,*47
1496037824.41,16049,17.63,74304.3,20.99,-24.83,-25.97,0,*41
1496037825.6,16050,17.63,74304.3,21.01,-25.09,-26.23,0,*46
1496037826.83,16051,17.63,74302.3,21.01,-25.03,-26.07,0,*4B
1496037828.05,16052,17.63,74304.3,21.01,-25.55,-26.61,0,*4B
1496037829.31,16053,17.63,74302.0,21.03,-26.33,-27.71,0,*4B
1496037830.53,16054,17.63,74302.8,21.05,-25.97,-27.03,0,*42
1496037831.78,16055,17.63,74304.5,21.03,-24.57,-25.71,0,*4F
1496037833.03,16056,17.63,74304.0,21.05,-24.87,-25.97,0,*4F
1496037834.3,16057,17.63,74304.3,21.07,-24.83,-25.81,0,*4F
1496037835.55,16058,17.63,74304.8,21.11,-25.29,-26.39,0,*46
1496037836.78,16059,17.63,74300.3,21.11,-25.13,-26.23,0,*45
1496037838.05,16060,17.63,74306.0,21.07,-25.97,-27.23,0,*45
1496037839.27,16061,17.63,74304.5,21.11,-25.13,-26.23,0,*4E
1496037840.5,16062,17.63,74300.5,21.11,-25.13,-26.39,0,*46
1496037841.75,16063,17.63,74304.3,21.11,-25.13,-26.29,0,*46
1496037842.97,16064,17.63,74306.8,21.13,-25.09,-26.33,0,*43
1496037844.2,16065,17.63,74304.0,21.15,-25.87,-27.03,0,*40
1496037845.42,16066,17.63,74300.8,21.13,-25.65,-26.81,0,*42
1496037846.64,16067,17.63,74304.5,21.15,-26.49,-27.89,0,*41
1496037847.86,16068,17.63,74306.5,21.13,-27.19,-28.53,0,*44
1496037849.1,16069,17.63,74304.3,21.13,-27.23,-28.43,0,*4D
1496037850.35,16070,17.63,74304.3,21.13,-25.55,-26.81,0,*46
1496037851.54,16071,17.63,74300.5,21.13,-25.39,-26.49,0,*49
1496037852.79,16072,17.63,74300.3,21.13,-25.71,-26.97,0,*45
1496037854.01,16073,17.63,74302.3,21.13,-25.49,-26.55,0,*41
1496037855.25,16074,17.63,74306.3,21.15,-25.03,-26.23,0,*4F
1496037856.47,16075,17.63,74300.3,21.15,-25.09,-26.23,0,*44
1496037857.71,16076,17.63,74302.8,21.15,-25.39,-26.55,0,*45
1496037858.96,16077,17.63,74304.3,21.17,-25.81,-26.93,0,*4F
1496037860.18,16078,17.63,74306.0,21.17,-26.61,-28.09,0,*40
1496037861.42,16079,17.63,74306.3,21.15,-26.55,-27.89,0,*43
1496037862.7,16080,17.63,74304.5,21.15,-25.71,-26.97,0,*4E
1496037863.9,16081,17.63,74306.5,21.17,-24.77,-25.91,0,*4F
1496037865.15,16082,17.63,74302.3,21.19,-24.61,-25.75,0,*4F
1496037866.41,16083,17.63,74306.3,21.19,-24.31,-25.55,0,*49
1496037867.64,16084,17.63,74300.5,21.21,-24.25,-25.39,0,*4A
1496037868.9,16085,17.63,74306.0,21.23,-24.25,-25.23,0,*42
1496037870.14,16086,17.63,74302.0,21.25,-24.31,-25.45,0,*42
1496037871.35,16087,17.63,74302.3,21.25,-25.87,-27.29,0,*47
1496037872.62,16088,17.63,74300.5,21.27,-25.97,-27.03,0,*43
1496037873.88,16089,17.63,74304.0,21.27,-24.83,-26.03,0,*47
1496037875.12,16090,17.63,74304.0,21.27,-26.49,-27.93,0,*43
1496037876.37,16091,17.63,74304.5,21.27,-27.35,-28.53,0,*4B
1496037877.64,16092,17.63,74304.5,21.25,-26.81,-28.05,0,*47
1496037878.9,16093,17.63,74306.0,21.27,-26.29,-27.77,0,*4C
1496037880.15,16094,17.63,74302.8,21.27,-25.45,-26.49,0,*4E
1496037881.39,16095,17.63,74306.5,21.27,-27.29,-28.69,0,*4B
1496037882.66,16096,17.63,74306.8,21.27,-28.47,-30.05,0,*4C
1496037883.93,16097,17.63,74300.5,21.25,-26.77,-28.05,0,*4B
1496037885.19,16098,17.63,74306.0,21.23,-26.03,-27.39,0,*41
1496037886.41,16099,17.63,74304.5,21.23,-25.87,-27.07,0,*42
1496037887.66,16100,17.63,74306.8,21.23,-26.87,-28.05,0,*4D
1496037888.91,16101,17.63,74304.5,21.23,-25.81,-27.03,0,*40
1496037890.15,16102,17.63,74302.3,21.23,-25.35,-26.71,0,*48
1496037891.4,16103,17.63,74300.5,21.23,-26.49,-27.83,0,*4D
1496037892.62,16104,17.63,74304.5,21.23,-25.91,-27.03,0,*44
1496037893.87,16105,17.63,74304.3,21.23,-25.87,-27.23,0,*40
1496037895.13,16106,17.63,74304.3,21.23,-26.03,-27.35,0,*4B
1496037896.35,16107,17.63,74302.5,21.23,-25.19,-26.49,0,*48
1496037897.61,16108,17.63,74302.8,21.25,-25.75,-26.97,0,*48
1496037898.84,16109,17.63,74304.8,21.27,-26.45,-27.77,0,*44
1496037900.12,16110,17.63,74302.0,21.27,-26.13,-27.45,0,*4E
1496037901.35,16111,17.63,74306.3,21.27,-26.49,-27.93,0,*4B
1496037902.62,16112,17.63,74302.3,21.27,-25.97,-27.29,0,*49
1496037903.89,16113,17.63,74300.5,21.27,-26.03,-27.35,0,*4B
1496037905.14,16114,17.63,74304.0,21.27,-25.35,-26.77,0,*4D
1496037906.38,16115,17.63,74306.5,21.27,-25.65,-27.03,0,*4B
1496037907.64,16116,17.63,74306.8,21.27,-28.31,-29.73,0,*4D
1496037908.87,16117,17.63,74306.8,21.25,-29.01,-30.23,0,*41
1496037910.15,16118,17.63,74304.8,21.23,-29.17,-30.61,0,*49
1496037911.38,16119,17.63,74304.3,21.21,-29.67,-31.23,0,*4A
1496037912.6,16120,17.63,74306.0,21.19,-29.79,-31.33,0,*45
1496037913.82,16121,17.63,74306.0,21.17,-30.17,-31.79,0,*44
1496037915.11,16122,17.63,74306.3,21.15,-29.35,-30.77,0,*42
1496037916.33,16123,17.63,74306.8,21.13,-30.23,-31.85,0,*46
1496037917.52,16124,17.63,74306.0,21.05,-29.61,-31.29,0,*4E
1496037918.79,16125,17.63,74304.8,21.07,-30.05,-31.57,0,*4E
1496037920.04,16126,17.63,74306.8,21.03,-28.91,-30.27,0,*4B
1496037921.28,16127,17.63,74304.0,21.03,-27.55,-29.01,0,*41
1496037922.5,16128,17.63,74302.3,21.05,-27.35,-28.69,0,*41
1496037923.74,16129,17.63,74304.3,21.03,-27.55,-29.01,0,*4F
1496037925.01,16130,17.63,74306.3,21.03,-27.99,-29.39,0,*4C
1496037926.23,16131,17.63,74310.0,21.03,-27.67,-29.07,0,*41
1496037927.48,16132,17.63,74302.0,21.03,-25.71,-26.87,0,*40
1496037928.69,16133,17.63,74304.8,21.03,-26.23,-27.55,0,*4B
1496037929.96,16134,17.63,74306.5,21.03,-27.39,-28.91,0,*41
1496037931.19,16135,17.63,74306.0,21.03,-27.03,-28.53,0,*47
1496037932.44,16136,17.63,74306.8,21.03,-25.87,-27.35,0,*45
1496037933.63,16137,17.63,74302.3,21.05,-25.49,-26.65,0,*44
1496037934.85,16138,17.63,74306.0,21.05,-26.71,-28.15,0,*4A
1496037936.09,16139,17.63,74304.8,21.05,-25.55,-26.71,0,*42
1496037937.34,16140,17.63,74300.5,21.11,-25.91,-27.23,0,*47
1496037938.56,16141,17.63,74308.0,21.07,-25.65,-27.07,0,*4C
1496037939.82,16142,17.63,74304.0,21.11,-25.45,-26.71,0,*4A
1496037941.08,16143,17.63,74306.3,21.15,-24.83,-26.07,0,*45
1496037942.32,16144,17.63,74306.8,21.15,-25.71,-27.13,0,*4A
1496037943.59,16145,17.63,74304.8,21.15,-25.81,-27.39,0,*4C
1496037944.84,16146,17.63,74306.0,21.15,-26.55,-28.15,0,*44
1496037946.04,16147,17.63,74306.8,21.13,-26.07,-27.55,0,*4F
1496037947.28,16148,17.63,74306.0,21.15,-26.49,-27.83,0,*47
1496037948.47,16149,17.63,74306.3,21.17,-25.35,-26.49,0,*4B
1496037949.7,16150,17.63,74304.8,21.17,-24.97,-26.33,0,*47
1496037950.94,16151,17.63,74306.8,21.19,-24.97,-26.29,0,*43
1496037952.18,16152,17.63,74306.8,21.19,-25.23,-26.55,0,*45
1496037953.4,16153,17.63,74308.8,21.23,-25.23,-26.49,0,*40
1496037954.58,16154,17.63,74302.3,21.21,-24.93,-26.23,0,*43
1496037955.83,16155,17.63,74308.8,21.23,-24.83,-26.07,0,*47
1496037957.07,16156,17.63,74304.5,21.25,-26.29,-27.77,0,*46
1496037958.32,16157,17.63,74304.3,21.23,-25.65,-26.97,0,*45
1496037959.58,16158,17.63,74304.5,21.25,-24.87,-26.29,0,*44
1496037960.79,16159,17.63,74306.3,21.25,-25.87,-27.29,0,*45
1496037962.02,16160,17.63,74302.8,21.25,-25.03,-26.45,0,*48
1496037963.26,16161,17.63,74304.3,21.27,-25.13,-26.45,0,*4A
1496037964.5,16162,17.63,74308.0,21.25,-25.49,-26.81,0,*4C
1496037965.76,16163,17.63,74300.8,21.27,-25.49,-26.93,0,*4C
1496037966.99,16164,17.63,74308.5,21.27,-25.65,-27.03,0,*4D
1496037968.25,16165,17.63,74304.8,21.31,-25.81,-27.13,0,*40
1496037969.48,16166,17.63,74306.8,21.31,-25.35,-26.65,0,*4C
1496037970.74,16167,17.63,74304.5,21.31,-25.19,-26.55,0,*40
1496037972.03,16168,17.63,74306.8,21.31,-24.71,-26.17,0,*46
1496037973.29,16169,17.63,74302.8,21.31,-24.67,-25.87,0,*4A
1496037974.53,16170,17.63,74306.0,21.35,-24.61,-25.87,0,*40
1496037975.77,16171,17.63,74306.0,21.37,-24.51,-25.81,0,*46
1496037976.99,16172,17.63,74304.0,21.37,-24.51,-25.87,0,*43
1496037978.22,16173,17.63,74306.8,21.41,-25.03,-26.39,0,*43
1496037979.45,16174,17.63,74306.3,21.41,-24.93,-26.33,0,*46
1496037980.69,16175,17.63,74304.0,21.41,-24.57,-25.71,0,*4A
1496037981.97,16176,17.63,74302.5,21.41,-24.21,-25.55,0,*4E
1496037983.18,16177,17.63,74304.8,21.45,-24.05,-25.35,0,*4B
1496037984.47,16178,17.63,74304.5,21.47,-24.11,-25.45,0,*44
1496037985.76,16179,17.63,74304.0,21.47,-24.83,-26.29,0,*47
1496037987.01,16180,17.63,74304.5,21.49,-24.25,-25.49,0,*46
1496037988.25,16181,17.63,74306.5,21.49,-24.51,-25.97,0,*47
1496037989.49,16182,17.63,74306.0,21.53,-24.57,-25.81,0,*4E
1496037990.72,16183,17.63,74306.3,21.53,-24.57,-25.97,0,*48
1496037991.99,16184,17.63,74304.5,21.51,-26.03,-27.39,0,*48
1496037993.27,16185,17.63,74306.8,21.51,-26.55,-28.05,0,*4A
1496037994.5,16186,17.63,74304.8,21.51,-26.49,-27.93,0,*44
1496037995.77,16187,17.63,74304.5,21.51,-25.03,-26.39,0,*49
1496037997.03,16188,17.63,74304.3,21.53,-24.41,-25.81,0,*43
1496037998.26,16189,17.63,74304.5,21.53,-25.03,-26.45,0,*4E
1496037999.5,16190,17.63,74306.5,21.53,-25.97,-27.29,0,*40
1496038000.75,16191,17.63,74308.0,21.53,-25.81,-27.35,0,*4B
1496038002.01,16192,17.63,74304.0,21.57,-25.75,-27.13,0,*43
1496038003.25,16193,17.63,74306.5,21.57,-25.65,-27.07,0,*46
1496038004.45,16194,17.63,74304.0,21.59,-25.23,-26.65,0,*48
1496038005.7,16195,17.63,74304.3,21.57,-25.81,-27.13,0,*4F
1496038006.96,16196,17.63,74308.0,21.57,-25.75,-27.13,0,*47
1496038008.22,16197,17.63,74306.0,21.57,-26.13,-27.51,0,*43
1496038009.48,16198,17.63,74300.5,21.57,-26.61,-28.09,0,*4B
1496038010.74,16199,17.63,74304.3,21.57,-26.29,-27.67,0,*41
1496038012.0,16200,17.63,74302.5,21.57,-25.65,-27.23,0,*49
1496038013.28,16201,17.63,74306.0,21.57,-25.45,-26.77,0,*4A
1496038014.55,16202,17.63,74304.0,21.57,-24.61,-25.97,0,*43
1496038015.79,16203,17.63,74306.5,21.59,-24.51,-25.81,0,*48
1496038017.04,16204,17.63,74306.3,21.59,-24.11,-25.45,0,*43
1496038018.33,16205,17.63,74304.8,21.61,-24.87,-26.33,0,*44
1496038019.58,16206,17.63,74304.3,21.61,-26.17,-27.77,0,*4D
1496038020.84,16207,17.63,74304.5,21.61,-27.07,-28.75,0,*41
1496038022.09,16208,17.63,74304.8,21.61,-25.91,-27.35,0,*48
1496038023.35,16209,17.63,74304.0,21.61,-25.23,-26.77,0,*47
1496038024.58,16210,17.63,74308.0,21.63,-25.23,-26.71,0,*4B
1496038025.8,16211,17.63,74306.8,21.61,-25.19,-26.61,0,*40
1496038027.04,16212,17.63,74304.0,21.63,-25.13,-26.33,0,*4C
1496038028.29,16213,17.63,74304.0,21.61,-25.29,-26.61,0,*41
1496038029.56,16214,17.63,74306.0,21.63,-24.87,-26.29,0,*4D
1496038030.82,16215,17.63,74306.3,21.63,-27.83,-29.35,0,*49
1496038032.11,16216,17.63,74304.5,21.61,-28.79,-30.61,0,*4B
1496038033.37,16217,17.63,74304.0,21.59,-27.99,-29.35,0,*49
1496038034.57,16218,17.63,74306.3,21.59,-27.51,-28.97,0,*4B
1496038035.83,16219,17.63,74306.0,21.57,-26.49,-27.99,0,*4D
1496038037.12,16220,17.63,74304.5,21.57,-26.13,-27.61,0,*4F
1496038038.38,16221,17.63,74306.3,21.57,-26.29,-27.67,0,*41
1496038039.59,16222,17.63,74306.3,21.59,-25.65,-27.13,0,*44
1496038040.82,16223,17.63,74304.0,21.59,-25.29,-26.65,0,*4D
1496038042.05,16224,17.63,74304.5,21.59,-24.97,-26.29,0,*46
1496038043.28,16225,17.63,74304.8,21.61,-25.09,-26.39,0,*4B
1496038044.52,16226,17.63,74304.3,21.63,-26.29,-27.71,0,*46
1496038045.73,16227,17.63,74304.5,21.63,-26.39,-27.89,0,*41
1496038046.98,16228,17.63,74304.5,21.61,-26.71,-28.37,0,*4A
1496038048.21,16229,17.63,74306.5,21.61,-26.87,-28.37,0,*42
1496038049.5,16230,17.63,74304.8,21.61,-27.23,-28.59,0,*4D
1496038050.79,16231,17.63,74302.5,21.57,-29.17,-30.73,0,*41
1496038052.05,16232,17.63,74306.5,21.57,-27.77,-29.35,0,*40
1496038053.28,16233,17.63,74306.5,21.53,-28.63,-30.23,0,*40
1496038054.51,16234,17.63,74304.8,21.53,-27.89,-29.39,0,*4F
1496038055.8,16235,17.63,74302.0,21.51,-26.77,-28.21,0,*44
1496038057.03,16236,17.63,74304.0,21.53,-26.17,-27.55,0,*4F
1496038058.3,16237,17.63,74306.8,21.51,-26.33,-27.67,0,*4B
1496038059.55,16238,17.63,74306.3,21.51,-26.23,-27.61,0,*43
1496038060.78,16239,17.63,74304.5,21.51,-26.07,-27.55,0,*43
1496038062.02,16240,17.63,74304.8,21.53,-26.03,-27.45,0,*4A
1496038063.25,16241,17.63,74304.3,21.53,-26.71,-28.37,0,*44
1496038064.53,16242,17.63,74304.5,21.51,-26.77,-28.43,0,*40
1496038065.78,16243,17.63,74304.0,21.51,-25.45,-26.87,0,*45
1496038067.01,16244,17.63,74302.5,21.53,-25.87,-27.45,0,*41
1496038068.25,16245,17.63,74304.5,21.53,-26.65,-28.05,0,*44
1496038069.46,16246,17.63,74306.8,21.53,-26.03,-27.55,0,*4D
1496038070.68,16247,17.63,74306.8,21.53,-26.49,-28.15,0,*49
1496038071.91,16248,17.63,74306.3,21.53,-26.49,-27.83,0,*46
1496038073.14,16249,17.63,74302.5,21.53,-26.13,-27.67,0,*42
1496038074.38,16250,17.63,74304.8,21.53,-26.49,-28.05,0,*4E
1496038075.64,16251,17.63,74302.8,21.57,-26.29,-27.77,0,*47
1496038076.87,16252,17.63,74306.8,21.59,-26.13,-27.51,0,*47
1496038078.15,16253,17.63,74304.5,21.57,-26.13,-27.61,0,*4B
1496038079.38,16254,17.63,74304.5,21.59,-25.29,-26.49,0,*43
1496038080.67,16255,17.63,74304.3,21.57,-26.77,-28.43,0,*40
1496038081.9,16256,17.69,74310.5,21.57,-27.13,-28.69,0,*48
1496038083.18,16257,17.63,74306.8,21.57,-26.97,-28.43,0,*4C
1496038084.42,16258,17.63,74306.8,21.57,-26.45,-27.93,0,*4E
1496038085.67,16259,17.63,74308.0,21.57,-26.13,-27.51,0,*42
1496038086.91,16260,17.63,74304.8,21.57,-25.13,-26.65,0,*4D
1496038088.12,16261,17.63,74304.3,21.59,-24.77,-26.07,0,*45
1496038089.32,16262,17.63,74306.8,21.59,-24.93,-26.39,0,*41
1496038090.58,16263,17.63,74306.0,21.59,-27.61,-29.29,0,*40
1496038091.79,16264,17.63,74306.0,21.59,-26.23,-27.67,0,*44
1496038093.02,16265,17.63,74306.5,21.59,-25.35,-26.77,0,*41
1496038094.23,16266,17.63,74306.8,21.59,-25.49,-27.13,0,*4A
1496038095.45,16267,17.63,74302.3,21.61,-26.23,-27.77,0,*4D